Time,TemperatureF,DewpointF,PressureIn,WindDirection,WindDirectionDegrees,WindSpeedMPH,WindSpeedGustMPH,Humidity,HourlyPrecipIn,Conditions,Clouds,dailyrainin,SolarRadiationWatts/m^2,SoftwareType,DateUTC
2013-02-19 00:01:00,34.0,18.0,-100.00,SW,219,4.0,15.0,52,0.00,,,-99.99,0.000000,,2013-02-19 08:01:00,
2013-02-19 00:11:00,34.0,18.0,-100.00,SW,219,4.0,15.0,52,0.00,,,-99.99,0.000000,,2013-02-19 08:11:00,
2013-02-19 00:21:00,34.0,18.0,-100.00,SW,219,4.0,15.0,52,0.00,,,-99.99,0.000000,,2013-02-19 08:21:00,
2013-02-19 00:31:00,34.0,18.0,-100.00,SW,219,4.0,15.0,52,0.00,,,-99.99,0.000000,,2013-02-19 08:31:00,
2013-02-19 01:01:00,30.0,23.0,-100.00,SW,221,4.0,19.0,74,0.00,,,-99.99,0.000000,,2013-02-19 09:01:00,
2013-02-19 01:11:00,30.0,23.0,-100.00,SW,221,4.0,19.0,74,0.00,,,-99.99,0.000000,,2013-02-19 09:11:00,
2013-02-19 01:21:00,30.0,23.0,-100.00,SW,221,4.0,19.0,74,0.00,,,-99.99,0.000000,,2013-02-19 09:21:00,
2013-02-19 01:31:00,30.0,23.0,-100.00,SW,221,4.0,19.0,74,0.00,,,-99.99,0.000000,,2013-02-19 09:31:00,
2013-02-19 02:01:00,31.0,23.0,-100.00,South,176,4.0,11.0,73,0.00,,,-99.99,0.000000,,2013-02-19 10:01:00,
2013-02-19 02:11:00,31.0,23.0,-100.00,South,176,4.0,11.0,73,0.00,,,-99.99,0.000000,,2013-02-19 10:11:00,
2013-02-19 02:21:00,31.0,23.0,-100.00,South,176,4.0,11.0,73,0.00,,,-99.99,0.000000,,2013-02-19 10:21:00,
2013-02-19 02:31:00,31.0,23.0,-100.00,South,176,4.0,11.0,73,0.00,,,-99.99,0.000000,,2013-02-19 10:31:00,
2013-02-19 03:01:00,32.0,24.0,-100.00,SSW,212,3.0,20.0,72,0.00,,,-99.99,0.000000,,2013-02-19 11:01:00,
2013-02-19 03:11:00,32.0,24.0,-100.00,SSW,212,3.0,20.0,72,0.00,,,-99.99,0.000000,,2013-02-19 11:11:00,
2013-02-19 03:21:00,32.0,24.0,-100.00,SSW,212,3.0,20.0,72,0.00,,,-99.99,0.000000,,2013-02-19 11:21:00,
2013-02-19 03:31:00,32.0,24.0,-100.00,SSW,212,3.0,20.0,72,0.00,,,-99.99,0.000000,,2013-02-19 11:31:00,
2013-02-19 04:01:00,31.0,26.0,-100.00,ESE,106,5.0,26.0,80,0.00,,,-99.99,0.000000,,2013-02-19 12:01:00,
2013-02-19 04:12:00,31.0,26.0,-100.00,ESE,106,5.0,26.0,80,0.00,,,-99.99,0.000000,,2013-02-19 12:12:00,
2013-02-19 04:21:00,31.0,26.0,-100.00,ESE,106,5.0,26.0,80,0.00,,,-99.99,0.000000,,2013-02-19 12:21:00,
2013-02-19 04:32:00,31.0,26.0,-100.00,ESE,106,5.0,26.0,80,0.00,,,-99.99,0.000000,,2013-02-19 12:32:00,
2013-02-19 05:02:00,29.0,24.0,-100.00,SSW,194,6.0,20.0,82,0.00,,,-99.99,0.000000,,2013-02-19 13:02:00,
2013-02-19 05:11:00,29.0,24.0,-100.00,SSW,194,6.0,20.0,82,0.00,,,-99.99,0.000000,,2013-02-19 13:11:00,
2013-02-19 05:22:00,29.0,24.0,-100.00,SSW,194,6.0,20.0,82,0.00,,,-99.99,0.000000,,2013-02-19 13:22:00,
2013-02-19 05:31:00,29.0,24.0,-100.00,SSW,194,6.0,20.0,82,0.00,,,-99.99,0.000000,,2013-02-19 13:31:00,
2013-02-19 06:01:00,27.0,20.0,-100.00,ENE,71,6.0,19.0,76,0.00,,,-99.99,0.000000,,2013-02-19 14:01:00,
2013-02-19 06:11:00,27.0,20.0,-100.00,ENE,71,6.0,19.0,76,0.00,,,-99.99,0.000000,,2013-02-19 14:11:00,
2013-02-19 06:21:00,27.0,20.0,-100.00,ENE,71,6.0,19.0,76,0.00,,,-99.99,0.000000,,2013-02-19 14:21:00,
2013-02-19 06:32:00,27.0,20.0,-100.00,ENE,71,6.0,19.0,76,0.00,,,-99.99,0.000000,,2013-02-19 14:32:00,
2013-02-19 07:01:00,26.0,20.0,-100.00,SSW,201,5.0,25.0,77,0.00,,,-99.99,0.000000,,2013-02-19 15:01:00,
2013-02-19 07:11:00,26.0,20.0,-100.00,SSW,201,5.0,25.0,77,0.00,,,-99.99,0.000000,,2013-02-19 15:11:00,
2013-02-19 07:21:00,26.0,20.0,-100.00,SSW,201,5.0,25.0,77,0.00,,,-99.99,0.000000,,2013-02-19 15:21:00,
2013-02-19 07:31:00,26.0,20.0,-100.00,SSW,201,5.0,25.0,77,0.00,,,-99.99,0.000000,,2013-02-19 15:31:00,
2013-02-19 08:01:00,25.0,18.0,-100.00,SSW,194,6.0,26.0,75,0.00,,,-99.99,2.000000,,2013-02-19 16:01:00,
2013-02-19 08:11:00,25.0,18.0,-100.00,SSW,194,6.0,26.0,75,0.00,,,-99.99,2.000000,,2013-02-19 16:11:00,
2013-02-19 08:21:00,25.0,18.0,-100.00,SSW,194,6.0,26.0,75,0.00,,,-99.99,2.000000,,2013-02-19 16:21:00,
2013-02-19 08:31:00,25.0,18.0,-100.00,SSW,194,6.0,26.0,75,0.00,,,-99.99,2.000000,,2013-02-19 16:31:00,
2013-02-19 09:01:00,26.0,17.0,-100.00,South,190,7.0,17.0,68,0.00,,,0.00,39.000000,,2013-02-19 17:01:00,
2013-02-19 09:11:00,26.0,17.0,-100.00,South,190,7.0,17.0,68,0.00,,,0.00,39.000000,,2013-02-19 17:11:00,
2013-02-19 09:21:00,26.0,17.0,-100.00,South,190,7.0,17.0,68,0.00,,,0.00,39.000000,,2013-02-19 17:21:00,
2013-02-19 09:31:00,26.0,17.0,-100.00,South,190,7.0,17.0,68,0.00,,,0.00,39.000000,,2013-02-19 17:31:00,
2013-02-19 10:01:00,30.0,17.0,-100.00,SSW,205,5.0,24.0,59,0.00,,,0.00,159.000000,,2013-02-19 18:01:00,
2013-02-19 10:11:00,30.0,17.0,-100.00,SSW,205,5.0,24.0,59,0.00,,,0.00,159.000000,,2013-02-19 18:11:00,
2013-02-19 10:21:00,30.0,17.0,-100.00,SSW,205,5.0,24.0,59,0.00,,,0.00,159.000000,,2013-02-19 18:21:00,
2013-02-19 10:31:00,30.0,17.0,-100.00,SSW,205,5.0,24.0,59,0.00,,,0.00,159.000000,,2013-02-19 18:31:00,
2013-02-19 11:01:00,30.0,16.0,-100.00,SSW,206,5.0,23.0,55,0.00,,,0.00,245.000000,,2013-02-19 19:01:00,
2013-02-19 11:11:00,30.0,16.0,-100.00,SSW,206,5.0,23.0,55,0.00,,,0.00,245.000000,,2013-02-19 19:11:00,
2013-02-19 11:21:00,30.0,16.0,-100.00,SSW,206,5.0,23.0,55,0.00,,,0.00,245.000000,,2013-02-19 19:21:00,
2013-02-19 11:31:00,30.0,16.0,-100.00,SSW,206,5.0,23.0,55,0.00,,,0.00,245.000000,,2013-02-19 19:31:00,
2013-02-19 12:01:00,32.0,14.0,-100.00,South,190,4.0,18.0,47,0.00,,,0.00,211.000000,,2013-02-19 20:01:00,
2013-02-19 12:11:00,32.0,14.0,-100.00,South,190,4.0,18.0,47,0.00,,,0.00,211.000000,,2013-02-19 20:11:00,
2013-02-19 12:21:00,32.0,14.0,-100.00,South,190,4.0,18.0,47,0.00,,,0.00,211.000000,,2013-02-19 20:21:00,
2013-02-19 12:31:00,32.0,14.0,-100.00,South,190,4.0,18.0,47,0.00,,,0.00,211.000000,,2013-02-19 20:31:00,
2013-02-19 13:01:00,32.0,12.0,-100.00,South,177,4.0,16.0,42,0.00,,,0.00,204.000000,,2013-02-19 21:01:00,
2013-02-19 13:11:00,32.0,12.0,-100.00,South,177,4.0,16.0,42,0.00,,,0.00,204.000000,,2013-02-19 21:11:00,
2013-02-19 13:21:00,32.0,12.0,-100.00,South,177,4.0,16.0,42,0.00,,,0.00,204.000000,,2013-02-19 21:21:00,
2013-02-19 13:31:00,32.0,12.0,-100.00,South,177,4.0,16.0,42,0.00,,,0.00,204.000000,,2013-02-19 21:31:00,
2013-02-19 14:02:00,30.0,14.0,-100.00,SSE,151,4.0,16.0,50,0.00,,,0.00,177.000000,,2013-02-19 22:02:00,
2013-02-19 14:11:00,30.0,14.0,-100.00,SSE,151,4.0,16.0,50,0.00,,,0.00,177.000000,,2013-02-19 22:11:00,
2013-02-19 14:21:00,30.0,14.0,-100.00,SSE,151,4.0,16.0,50,0.00,,,0.00,177.000000,,2013-02-19 22:21:00,
2013-02-19 14:31:00,30.0,14.0,-100.00,SSE,151,4.0,16.0,50,0.00,,,0.00,177.000000,,2013-02-19 22:31:00,
2013-02-19 15:01:00,27.0,18.0,-100.00,NE,53,3.0,10.0,68,0.00,,,0.00,107.000000,,2013-02-19 23:01:00,
2013-02-19 15:11:00,27.0,18.0,-100.00,NE,53,3.0,10.0,68,0.00,,,0.00,107.000000,,2013-02-19 23:11:00,
2013-02-19 15:21:00,27.0,18.0,-100.00,NE,53,3.0,10.0,68,0.00,,,0.00,107.000000,,2013-02-19 23:21:00,
2013-02-19 15:31:00,27.0,18.0,-100.00,NE,53,3.0,10.0,68,0.00,,,0.00,107.000000,,2013-02-19 23:31:00,
2013-02-19 16:01:00,26.0,18.0,-100.00,SSW,192,3.0,12.0,72,0.00,,,0.00,75.000000,,2013-02-20 00:01:00,
2013-02-19 16:11:00,26.0,18.0,-100.00,SSW,192,3.0,12.0,72,0.00,,,0.00,75.000000,,2013-02-20 00:11:00,
2013-02-19 16:21:00,26.0,18.0,-100.00,SSW,192,3.0,12.0,72,0.00,,,0.00,75.000000,,2013-02-20 00:21:00,
2013-02-19 16:31:00,26.0,18.0,-100.00,SSW,192,3.0,12.0,72,0.00,,,0.00,75.000000,,2013-02-20 00:31:00,
2013-02-19 17:02:00,24.0,18.0,-100.00,South,186,3.0,15.0,79,0.00,,,0.00,29.000000,,2013-02-20 01:02:00,
2013-02-19 17:11:00,24.0,18.0,-100.00,South,186,3.0,15.0,79,0.00,,,0.00,29.000000,,2013-02-20 01:11:00,
2013-02-19 17:21:00,24.0,18.0,-100.00,South,186,3.0,15.0,79,0.00,,,0.00,29.000000,,2013-02-20 01:21:00,
2013-02-19 17:31:00,24.0,18.0,-100.00,South,186,3.0,15.0,79,0.00,,,0.00,29.000000,,2013-02-20 01:31:00,
2013-02-19 18:01:00,23.0,19.0,-100.00,South,180,2.0,10.0,83,0.00,,,0.00,4.000000,,2013-02-20 02:01:00,
2013-02-19 18:11:00,23.0,19.0,-100.00,South,180,2.0,10.0,83,0.00,,,0.00,4.000000,,2013-02-20 02:11:00,
2013-02-19 18:21:00,23.0,19.0,-100.00,South,180,2.0,10.0,83,0.00,,,0.00,4.000000,,2013-02-20 02:21:00,
2013-02-19 18:31:00,23.0,19.0,-100.00,South,180,2.0,10.0,83,0.00,,,0.00,4.000000,,2013-02-20 02:31:00,
2013-02-19 19:02:00,22.0,-99.9,-100.00,North,-999,-999.0,-999.0,-999,0.00,,,0.00,,,2013-02-20 03:02:00,
2013-02-19 19:12:00,22.0,-99.9,-100.00,North,-999,-999.0,-999.0,-999,0.00,,,0.00,,,2013-02-20 03:12:00,
2013-02-19 19:22:00,22.0,-99.9,-100.00,North,-999,-999.0,-999.0,-999,0.00,,,0.00,,,2013-02-20 03:22:00,
2013-02-19 19:32:00,22.0,-99.9,-100.00,North,-999,-999.0,-999.0,-999,0.00,,,0.00,,,2013-02-20 03:32:00,